Terminal Aerodrome Forecast
Issued by NWS

Home | Current Version | Previous Version | Text Only | Print | Product List | Glossary On
Versions: 1 2 3 4 5 6 7 8 9 10 11 12 13 14 15 16 17 18 19 20 21 22 23 24 25 26 27 28 29 30 31 32 33 34 35 36 37 38 39 40
000
FTUS43 KDDC 231035 AAA
TAFHYS
TAF AMD
KHYS 231035Z 2311/2406 15014KT P6SM BKN006 OVC040
     FM231300 15012KT P6SM OVC004
     FM231500 15020G30KT 4SM -TSRA BR OVC004CB
     FM231800 14018KT P6SM OVC010=

USA.gov is the U.S. government's official web portal to all federal, state and local government web resources and services.